Bangor, ME

11:08 PM EDT on October 15, 2019 (GMT -0400)
Bangor International

Weather History for KBGR - August, 2019

Change the Weather History Date:

Tuesday, August 27, 2019

  Actual Average Record
Temperature  
Mean Temperature 66 °F 65 °F  
Max Temperature 79 °F 76 °F 99 °F (1948)
Min Temperature 52 °F 54 °F 32 °F (1940)
Degree Days  
Heating Degree Days 0 2  
Month to date heating degree days 12 33  
Since 1 June heating degree days 102 163  
Since 1 July heating degree days 12 56  
Cooling Degree Days 1 2  
Month to date cooling degree days 93 93  
Year to date cooling degree days 319 283  
Since 1 June cooling degree days 319 277  
Growing Degree Days 16 (Base 50)    
Moisture  
Dew Point 54 °F    
Average Humidity 69    
Maximum Humidity 100    
Minimum Humidity 37    
Precipitation  
Precipitation 0.00 in 0.09 in 0.89 in (1986)
Month to date precipitation 5.90 2.63  
Year to date precipitation 34.57 25.90  
Snow  
Snow 0.00 in 0.00 in 0.00 in (2002)
Month to date snowfall 0.0 0.0  
Since 1 June snowfall 0.0 0.0  
Since 1 July snowfall 0.0 0.0  
Snow Depth 0.00 in    
Sea Level Pressure  
Sea Level Pressure 30.04 in    
Wind  
Wind Speed 3 mph (SSW)    
Max Wind Speed 12 mph    
Max Gust Speed 14 mph    
Visibility 10 miles    
Events Fog    
T = Trace of Precipitation, MM = Missing Value Source: NWS Daily Summary

Daily Weather History Graph

Daily Weather History Graph

Search for Another Location

Airport or City:

Astronomy

Aug. 27, 2019 Rise Set
Actual Time 5:51 AM EDT 7:21 PM EDT
Civil Twilight 5:20 AM EDT 7:52 PM EDT
Nautical Twilight 4:43 AM EDT 8:29 PM EDT
Astronomical Twilight 4:03 AM EDT 9:08 PM EDT
Moon 2:02 AM EDT (8/27) 5:48 PM EDT (8/27)
Length of Visible Light 14h 31m
Length of Day
13h 30m
Waning Crescent, 11% of the Moon is Illuminated
Aug 27
Waning Crescent
Aug 30
New
Sep 5
First Quarter
Sep 14
Full
Sep 21
Last Quarter

Hourly Weather History & Observations

Time (EDT) Temp. Dew Point Humidity Pressure Visibility Wind Dir Wind Speed Gust Speed Precip Events Conditions
12:53 AM 55.9 °F 54.0 °F 93% 30.13 in 10.0 mi Calm Calm - N/A   Mostly Cloudy
1:53 AM 55.9 °F 55.0 °F 97% 30.12 in 10.0 mi WSW 3.5 mph - N/A   Mostly Cloudy
2:53 AM 55.9 °F 54.0 °F 93% 30.10 in 10.0 mi South 3.5 mph - N/A   Mostly Cloudy
3:53 AM 55.0 °F 54.0 °F 96% 30.09 in 10.0 mi Calm Calm - N/A   Mostly Cloudy
4:53 AM 54.0 °F 53.1 °F 97% 30.09 in 10.0 mi South 4.6 mph - N/A   Scattered Clouds
5:53 AM 53.1 °F 52.0 °F 96% 30.07 in 10.0 mi SSW 4.6 mph - N/A Fog Patches of Fog
6:10 AM 53.1 °F 52.0 °F 96% 30.08 in 9.0 mi SW 3.5 mph - N/A Fog Patches of Fog
6:53 AM 55.0 °F 53.1 °F 93% 30.08 in 9.0 mi Calm Calm - N/A Fog Patches of Fog
7:53 AM 55.9 °F 54.0 °F 93% 30.08 in 10.0 mi SW 5.8 mph - N/A   Mostly Cloudy
8:53 AM 59.0 °F 54.0 °F 83% 30.09 in 10.0 mi South 3.5 mph - N/A   Mostly Cloudy
9:53 AM 63.0 °F 55.0 °F 75% 30.07 in 10.0 mi Calm Calm - N/A   Mostly Cloudy
10:53 AM 69.1 °F 55.9 °F 63% 30.06 in 10.0 mi Variable 4.6 mph - N/A   Scattered Clouds
11:53 AM 72.0 °F 55.9 °F 57% 30.03 in 10.0 mi Variable 4.6 mph - N/A   Scattered Clouds
12:53 PM 75.0 °F 55.0 °F 50% 30.02 in 10.0 mi Variable 3.5 mph - N/A   Scattered Clouds
1:53 PM 77.0 °F 51.1 °F 40% 30.00 in 10.0 mi Calm Calm - N/A   Scattered Clouds
2:53 PM 77.0 °F 51.1 °F 40% 29.99 in 10.0 mi SW 6.9 mph - N/A   Scattered Clouds
3:53 PM 78.1 °F 50.0 °F 37% 29.98 in 10.0 mi NW 5.8 mph - N/A   Scattered Clouds
4:53 PM 78.1 °F 51.1 °F 39% 29.97 in 10.0 mi WSW 6.9 mph - N/A   Scattered Clouds
5:53 PM 75.9 °F 57.0 °F 52% 29.97 in 10.0 mi South 9.2 mph - N/A   Partly Cloudy
6:53 PM 71.1 °F 57.0 °F 61% 29.97 in 10.0 mi SSE 8.1 mph - N/A   Partly Cloudy
7:53 PM 66.9 °F 55.9 °F 68% 29.98 in 10.0 mi SSE 6.9 mph - N/A   Partly Cloudy
8:53 PM 64.9 °F 55.9 °F 73% 30.00 in 10.0 mi South 5.8 mph - N/A   Clear
9:53 PM 63.0 °F 55.9 °F 78% 30.00 in 10.0 mi South 5.8 mph - N/A   Clear
10:53 PM 62.1 °F 55.0 °F 78% 30.00 in 10.0 mi South 6.9 mph - N/A   Clear
11:53 PM 60.1 °F 54.0 °F 80% 30.00 in 10.0 mi South 5.8 mph - N/A   Clear